Tracking 19800 objects as of 24-Jul-2019
HD Live streaming from Space Station
objects crossing your sky now

FENGYUN 1C DEB

Track FENGYUN 1C DEB now!
10-day predictions


NORAD ID: 32423
Int'l Code: 1999-025DAK
Perigee: 368.4 km
Apogee: 426.4 km
Inclination: 97.7 °
Period: 92.4 minutes
Semi major axis: 6768 km
RCS: 0.0131 m2 (small)
Launch date: May 10, 1999
Source: People's Republic of China (PRC)
Launch site: Taiyaun Space Center, China (TSC)

Note: This is SATELLITE DEBRIS
aabbcc
Your satellite tracking list
Your tracking list is empty




NASA's NSSDC Master Catalog

Two Line Element Set (TLE):
1 32423U 99025DAK 13359.84959812 -.00000128 +00000-0 +00000-0 0  9998
2 32423 097.7467 221.2222 0042852 029.3755 330.9945 15.59087744327837
Source of the keplerian elements: AFSPC